Location: Gradaro
(45.0833°N, 10.8833°E)
Time: 06:14:14
(UTC+00:00)

SKYMED 2 - Pass Details

Date: 29 November 2020
Orbit: 621 x 623 km, 97.9° (Epoch: 27 January)

Event Time Altitude Azimuth Distance (km) Brightness Sun altitude
Rises 04:10:41 0° 158° (SSE) 2,889 7.4 -24.4°
Reaches altitude 10° 04:12:52 10° 155° (SSE) 1,988 6.5 -24.1°
Maximum altitude 04:17:09 66° 74° (ENE) 685 3.9 -23.3°
Enters shadow 04:19:42 24° 358° (N) 1,307 5.1 -22.9°
